Hourly Data Report for April 05, 2005

TORONTO CITY
ONTARIO

43°40'00.000" N
79°24'00.000" W
112.50 m
6158355
71508
XTO

Download Data

Hourly Data (April 2005)
Hourly Data Report for April 5, 2005
TIME
LST
Temp Definition
°C
Dew Point Definition
°C
Rel Hum Definition
%
Precip. Amount Definition
mm

Wind Dir Definition
10's deg

Wind Spd Definition
km/h
Visibility Definition
km
Stn Press Definition
kPa
Hmdx Definition


Wind Chill Definition


Weather Definition


00:00 5.7 -1.5 60   LegendMM LegendMM   100.36     LegendNANA
01:00 4.6 -1.6 64   LegendMM LegendMM   100.34     LegendNANA
02:00 4.8 -2.3 60   LegendMM LegendMM   100.36     LegendNANA
03:00 4.5 -3.0 58   LegendMM LegendMM   100.43     LegendNANA
04:00 5.4 -3.9 51   LegendMM LegendMM   100.48     LegendNANA
05:00 5.6 -3.8 51   LegendMM LegendMM   100.55     LegendNANA
06:00 5.6 -3.9 50   LegendMM LegendMM   100.57     LegendNANA
07:00 6.4 -3.3 50   LegendMM LegendMM   100.63     LegendNANA
08:00 7.7 -3.4 45   LegendMM LegendMM   100.64     LegendNANA
09:00 8.3 -4.2 41   LegendMM LegendMM   100.69     LegendNANA
10:00 9.3 -4.7 37   LegendMM LegendMM   100.73     LegendNANA
11:00 11.4 -4.7 32   LegendMM LegendMM   100.73     LegendNANA
12:00 12.1 -4.3 31   LegendMM LegendMM   100.68     LegendNANA
13:00 11.7 -3.6 34   LegendMM LegendMM   100.60     LegendNANA
14:00 11.9 -2.2 37   LegendMM LegendMM   100.48     LegendNANA
15:00 11.5 -2.8 37   LegendMM LegendMM   100.41     LegendNANA
16:00 10.6 -3.2 38   LegendMM LegendMM   100.33     LegendNANA
17:00 9.7 -5.2 35   LegendMM LegendMM   100.30     LegendNANA
18:00 9.1 -5.7 35   LegendMM LegendMM   100.28     LegendNANA
19:00 9.0 -7.5 30   LegendMM LegendMM   100.31     LegendNANA
20:00 9.1 -8.6 28   LegendMM LegendMM   100.37     LegendNANA
21:00 8.8 -8.7 28   LegendMM LegendMM   100.41     LegendNANA
22:00 8.7 -9.5 26   LegendMM LegendMM   100.36     LegendNANA
23:00 8.0 -8.3 31   LegendMM LegendMM   100.35     LegendNANA

Notes on Data Quality.

Legend

  • E = Estimated
  • M = Missing
  • NA = Not Available*
  • [empty] = Indicates an unobserved value
Date modified: